Погода в Ереване

Погода в Ереване : погода сейчас, прогноз погоды и архив. Всё, что Вы хотите узнать о погоде в Ереване!

Поиск расширенной информации на нашем сайте:

Другие новости

Новости СМИ2

Главная страница сайта

Новости сайта

03.07.2017

Напоминаем, что на нашем специализированном сайте Метеоцентр.Азия вы можете получить высокодетализированные автоматические прогнозы погоды по пунктам России, СНГ и мира в авиационном формате (включающие направление и скорость ветра, видимость, явления погоды, количество и форму облачности, нижнюю и верхнюю границу облачности).


Погода в Ереване - сегодня

Время (UTC), дата Ветер
(°,м/с) 
Видим.   Явления Облачность Т
(°С)
Тd
(°С)
f(%) Тe
(°С)
Pmin
(гПа)
dP
(гПа)
Po
(мм)
O2
(г/м3)
Тmin Tmax R s Состояние
почвы
12 20.02.18 тихо ()   20000 м    8/4 1000 м верхняя 
[Sc|Ci fib]
+9.1 +1.7 60 +9  1018  -0.9  689  268           
15 20.02.18 тихо ()   20000 м    8/0 средняя, верхняя 
[Ac As|Ci fib]
+7.2 +0.9 64 +7  1018.2  -0.5  689  270           
18 20.02.18 350 (С) 20000 м    5/0 средняя, верхняя 
[Ac trans|Ci fib]
+4.2 +1.1 80 +5  1019.1  -0.2  689  273    +9.9       
21 20.02.18 040 (СВ) 20000 м    8/0 средняя 
[Ac As]
+3.3 -0.5 76 +4  1019.2  -0.2  689  274           
00 21.02.18 тихо ()   20000 м    8/0 средняя 
[Ac As]
+2.3 +0.1 85 +2  1019.6  0.1  689  275           
03 21.02.18 тихо ()   20000 м    9/0 средняя 
[Ac As]
+1.1 +0 92 +1  1020  -0.1  689  276           
06 21.02.18 тихо ()   20000 м    ?/?  
[Ac trans]
+3.8 +1.8 87 +4  1019.4  -0.2  689  273  +0.3         
09 21.02.18 100 (В) 20000 м    8/1 1000 м средняя 
[Sc|Ac trans]
+10.5 +2.7 58 +12  1016.1  -0.8  688  267           
12 21.02.18 тихо ()   20000 м    8/3 1000 м средняя 
[Sc|Ac cuf]
+11.8 +2.7 54 +12  1013.9  -1.5  687  265           
15 21.02.18 тихо ()   20000 м    10/3 1000 м средняя 
[Sc|Ac As]
+9.4 +3.6 67 +9  1014.9  0.1  687  267           
18 21.02.18 250 (З) 10 км    10/6 1300 м средняя 
[Sc|Ac As]
+7.8 +4.3 79 +8  1016.4  0.9  688  269    +12.1       
21 21.02.18 360 (С) 10 км  {дождь}  10/5 1380 м средняя 
[Sc|Ac As]
+6.3 +3.5 82 +7  1016.2  -0.8  687  270           
00 22.02.18 300 (СЗ) 10 км  {дождь}  10/5 1000 м средняя 
[Sc|Ac As]
+5.8 +3.2 83 +6  1015.7  -0.5  687  270           
03 22.02.18 130 (ЮВ) 4000 м  дымка  8/4 1000 м средняя 
[Sc|Ac As]
+3.2 +1.7 90 +4  1016.6  -0.1  687  273           
06 22.02.18 тихо ()   4000 м  дымка  9/3 1000 м средняя 
[Sc|Ac As]
+6.1 +3.5 83 +6  1015.7  0.2  687  270  +3    0.0     
09 22.02.18 220 (ЮЗ) 10 км    8/3 1000 м средняя 
[Sc|Ac trans]
+11.6 +3.2 56 +13  1012.5  -1.1  686  265           
12 22.02.18 260 (З) 10 км    8/4 1000 м средняя 
[Sc|Ac As]
+12.6 +1.3 46 +14  1010.7  -1.4  685  264           
15 22.02.18 350 (С) 10 км    10/0 средняя 
[Ac cast]
+10.6 +3.2 60 +12  1011.9  0.6  686  265           
18 22.02.18 тихо ()   10 км    9/0 средняя 
[Ac As]
+8.4 +4.1 74 +8  1013.3  0.5  686  267    +13.6       
21 22.02.18 030 (СВ) 10 км    ясно 
+3.6 +1.3 85 +3  1015.3  0.1  686  273           
00 23.02.18 010 (С) 10 км    ясно 
+3.7 -0.9 72 +5  1015.7  0.4  686  273           
03 23.02.18 010 (С) 10 км    3/0 средняя 
[Ac trans]
+1.3 -1.9 79 +1  1016.8  0.1  687  275           
06 23.02.18 тихо ()   4000 м    ясно 
+4.8 +0.7 75 +5  1015.8  0.4  687  272  +0.9         
09 23.02.18 140 (ЮВ) 10 км    1/1 1500 м 
[Sc]
+12.2 +1.7 49 +13  1012  -1  686  264           
12 23.02.18 270 (З) 10 км    1/1 1500 м 
[Sc]
+14.2 +0.6 39 +15  1009.5  -1.7  685  262           
Время (UTC), дата Ветер
(°,м/с) 
Видим.   Явления Облачность Т
(°С)
Тd
(°С)
f(%) Тe
(°С)
Pmin
(гПа)
dP
(гПа)
Po
(мм)
O2
(г/м3)
Тmin Tmax R s Состояние
почвы

Для получения пояснительной информации подведите курсор к названию столбца.

ПОГОДА в Ереване - архив

Всё, что Вы хотите узнать о погоде в Ереване - удобно и подробно!

Выберите нужную дату (начиная с 1 января 2015* года) и нажмите кнопку "Найти".
Будут отображены архивные сводки погоды по пункту Ереван, начиная с указанной даты.


Отображать данные в формате CSV (для использования в таблицах Excel)


Внимание! Наш архив погоды предназначен исключительно для личного некоммерческого использования в познавательных целях. Если Вам необходимы официальные справки о состоянии погоды (для производственных, юридических, коммерческих и т.п. целей), обращайтесь в органы Росгидромета.

*Примечание: данная дата относится к архиву по метеостанциям СССР (Россия, СНГ, Балтия).
Архив по метеостанциям Зарубежной Европы и Азии (кроме Китая) хранится 10 дней, по другим регионам земного шара (Китай, Африка, Америка, Австралия, Океания) - 1 день.

Ереван - район местоположения метеостанции


Название, широта, долгота, высота метеостанции:
Ереван (Звартноц) 40.1°ш. 44.4°д. 865 м над ур. моря [Армения]

Дополнительная информация

В oтличие oт бoльшинства пoгoдных сайтoв мы публикуем пoдрoбную метеoинфoрмацию в детальнoм прoфессиoнальнoм фoрмате.

Характеристики температуры и влажнoсти вoздуха измеряются на высoте 2 м в тени вдали oт зданий и деревьев.
Скoрoсть ветра измеряется на высoте 10 м (на урoвне рoста челoвека скoрoсть ветра ниже в 1.5-2 раза). Если метеoстанция нахoдится в гoрoде или в лесу, тo скoрoсть ветра занижена на 2-4 м/с пo сравнению с oткрытым местoм. Скoрoсть ветра над акватoриями крупных рек и oзёр, а также на вершинах хoлмoв на 2-5 м/с выше, чем в oбычных услoвиях.
Атмoсфернoе давление в разных тoчках местнoсти мoжет значительнo oтличаться oт давления на метеoстанции, в зависимoсти oт услoвий рельефа (при пoдъёме на 10 м давление пoнижается примернo на 1 мм рт.ст.).